TimePDT,TemperatureF,Dew PointF,Humidity,Sea Level PressureIn,VisibilityMPH,Wind Direction,Wind SpeedMPH,Gust SpeedMPH,PrecipitationIn,Events,Conditions,WindDirDegrees,DateUTC
12:15 AM,51.8,46.4,82,29.86,10.0,NE,4.6,-,N/A,,Clear,50,2014-04-12 07:15:00
12:35 AM,50.0,46.4,87,29.86,10.0,North,3.5,-,N/A,,Clear,350,2014-04-12 07:35:00
12:55 AM,50.0,46.4,87,29.86,10.0,Calm,Calm,-,N/A,,Clear,0,2014-04-12 07:55:00
1:15 AM,50.0,46.4,87,29.86,10.0,Calm,Calm,-,N/A,,Clear,0,2014-04-12 08:15:00
1:35 AM,50.0,46.4,87,29.85,10.0,Calm,Calm,-,N/A,,Clear,0,2014-04-12 08:35:00
1:55 AM,48.2,44.6,87,29.85,10.0,NE,3.5,-,N/A,,Clear,50,2014-04-12 08:55:00
2:15 AM,48.2,44.6,87,29.85,10.0,Calm,Calm,-,N/A,,Clear,0,2014-04-12 09:15:00
2:35 AM,48.2,44.6,87,29.85,10.0,Calm,Calm,-,N/A,,Partly Cloudy,0,2014-04-12 09:35:00
2:55 AM,48.2,44.6,87,29.84,10.0,NE,3.5,-,N/A,,Partly Cloudy,50,2014-04-12 09:55:00
3:15 AM,46.4,44.6,93,29.84,10.0,NE,3.5,-,N/A,,Partly Cloudy,40,2014-04-12 10:15:00
3:35 AM,46.4,44.6,93,29.83,10.0,North,3.5,-,N/A,,Clear,10,2014-04-12 10:35:00
3:55 AM,46.4,44.6,93,29.83,10.0,Calm,Calm,-,N/A,,Clear,0,2014-04-12 10:55:00
4:15 AM,46.4,42.8,87,29.83,10.0,Calm,Calm,-,N/A,,Partly Cloudy,0,2014-04-12 11:15:00
4:35 AM,46.4,42.8,87,29.83,10.0,Calm,Calm,-,N/A,,Partly Cloudy,0,2014-04-12 11:35:00
4:55 AM,46.4,42.8,87,29.82,10.0,ENE,3.5,-,N/A,,Clear,60,2014-04-12 11:55:00
5:15 AM,44.6,42.8,93,29.82,10.0,Calm,Calm,-,N/A,,Clear,0,2014-04-12 12:15:00
5:35 AM,44.6,41.0,87,29.82,10.0,Calm,Calm,-,N/A,,Clear,0,2014-04-12 12:35:00
5:55 AM,44.6,42.8,93,29.82,10.0,ENE,3.5,-,N/A,,Partly Cloudy,60,2014-04-12 12:55:00
6:15 AM,44.6,42.8,93,29.83,10.0,Calm,Calm,-,N/A,,Clear,0,2014-04-12 13:15:00
6:35 AM,44.6,41.0,87,29.84,10.0,Calm,Calm,-,N/A,,Clear,0,2014-04-12 13:35:00
6:55 AM,44.6,42.8,93,29.84,10.0,Calm,Calm,-,N/A,,Clear,0,2014-04-12 13:55:00
7:15 AM,48.2,44.6,87,29.84,10.0,Calm,Calm,-,N/A,,Clear,0,2014-04-12 14:15:00
7:35 AM,51.8,46.4,82,29.85,10.0,Calm,Calm,-,N/A,,Clear,0,2014-04-12 14:35:00
7:55 AM,55.4,44.6,67,29.85,10.0,Calm,Calm,-,N/A,,Clear,0,2014-04-12 14:55:00
8:15 AM,59.0,46.4,63,29.86,10.0,Calm,Calm,-,N/A,,Clear,0,2014-04-12 15:15:00
8:35 AM,62.6,46.4,55,29.86,10.0,Calm,Calm,-,N/A,,Clear,0,2014-04-12 15:35:00
8:55 AM,62.6,44.6,52,29.86,10.0,Calm,Calm,-,N/A,,Clear,0,2014-04-12 15:55:00
9:15 AM,64.4,46.4,52,29.86,10.0,Calm,Calm,-,N/A,,Clear,0,2014-04-12 16:15:00
9:35 AM,64.4,46.4,52,29.87,10.0,SSW,4.6,-,N/A,,Clear,200,2014-04-12 16:35:00
9:55 AM,64.4,48.2,56,29.87,10.0,SSW,4.6,-,N/A,,Clear,200,2014-04-12 16:55:00
10:15 AM,64.4,48.2,56,29.87,10.0,SSW,5.8,-,N/A,,Clear,210,2014-04-12 17:15:00
10:35 AM,66.2,50.0,56,29.87,10.0,SSW,6.9,-,N/A,,Clear,210,2014-04-12 17:35:00
10:55 AM,64.4,50.0,59,29.88,10.0,West,8.1,-,N/A,,Clear,260,2014-04-12 17:55:00
11:15 AM,66.2,50.0,56,29.88,10.0,South,5.8,-,N/A,,Clear,190,2014-04-12 18:15:00
11:35 AM,66.2,48.2,52,29.88,10.0,South,4.6,-,N/A,,Clear,180,2014-04-12 18:35:00
11:55 AM,66.2,48.2,52,29.87,10.0,SSW,3.5,-,N/A,,Clear,200,2014-04-12 18:55:00
12:15 PM,66.2,48.2,52,29.87,10.0,South,4.6,-,N/A,,Clear,190,2014-04-12 19:15:00
12:35 PM,68.0,50.0,52,29.87,10.0,South,5.8,-,N/A,,Clear,190,2014-04-12 19:35:00
12:55 PM,69.8,50.0,49,29.87,10.0,West,6.9,-,N/A,,Clear,270,2014-04-12 19:55:00
1:15 PM,68.0,51.8,56,29.87,10.0,WSW,4.6,-,N/A,,Clear,240,2014-04-12 20:15:00
1:35 PM,69.8,50.0,49,29.87,10.0,West,4.6,-,N/A,,Clear,280,2014-04-12 20:35:00
1:55 PM,71.6,51.8,50,29.87,10.0,WSW,6.9,-,N/A,,Clear,240,2014-04-12 20:55:00
2:15 PM,69.8,53.6,56,29.86,10.0,WSW,8.1,-,N/A,,Clear,240,2014-04-12 21:15:00
2:35 PM,71.6,53.6,53,29.86,10.0,SW,5.8,-,N/A,,Clear,220,2014-04-12 21:35:00
2:55 PM,71.6,55.4,57,29.86,10.0,WSW,5.8,-,N/A,,Clear,250,2014-04-12 21:55:00
3:15 PM,71.6,53.6,53,29.86,10.0,West,8.1,-,N/A,,Clear,270,2014-04-12 22:15:00
3:35 PM,71.6,48.2,43,29.85,10.0,West,5.8,-,N/A,,Clear,270,2014-04-12 22:35:00
3:55 PM,71.6,44.6,38,29.85,10.0,WNW,6.9,-,N/A,,Clear,290,2014-04-12 22:55:00
4:15 PM,71.6,46.4,41,29.84,10.0,WSW,6.9,-,N/A,,Clear,240,2014-04-12 23:15:00
4:35 PM,71.6,44.6,38,29.84,10.0,South,5.8,-,N/A,,Clear,190,2014-04-12 23:35:00
4:55 PM,71.6,42.8,35,29.84,10.0,South,4.6,-,N/A,,Clear,190,2014-04-12 23:55:00
5:15 PM,71.6,44.6,38,29.84,10.0,SSW,4.6,-,N/A,,Clear,210,2014-04-13 00:15:00
5:35 PM,69.8,44.6,40,29.85,10.0,South,5.8,-,N/A,,Clear,190,2014-04-13 00:35:00
5:55 PM,68.0,44.6,43,29.85,10.0,SSW,4.6,-,N/A,,Clear,210,2014-04-13 00:55:00
6:15 PM,68.0,46.4,46,29.85,10.0,SSW,3.5,-,N/A,,Clear,200,2014-04-13 01:15:00
6:35 PM,66.2,48.2,52,29.85,10.0,South,3.5,-,N/A,,Clear,190,2014-04-13 01:35:00
6:55 PM,66.2,50.0,56,29.86,10.0,South,3.5,-,N/A,,Clear,190,2014-04-13 01:55:00
7:15 PM,62.6,50.0,63,29.86,10.0,Calm,Calm,-,N/A,,Clear,0,2014-04-13 02:15:00
7:35 PM,59.0,50.0,72,29.86,10.0,Calm,Calm,-,N/A,,Clear,0,2014-04-13 02:35:00
7:55 PM,59.0,50.0,72,29.87,10.0,Calm,Calm,-,N/A,,Clear,0,2014-04-13 02:55:00
8:15 PM,57.2,50.0,77,29.88,10.0,Calm,Calm,-,N/A,,Clear,0,2014-04-13 03:15:00
8:35 PM,55.4,50.0,82,29.88,10.0,Calm,Calm,-,N/A,,Clear,0,2014-04-13 03:35:00
8:55 PM,55.4,48.2,77,29.89,10.0,ENE,3.5,-,N/A,,Clear,70,2014-04-13 03:55:00
9:15 PM,53.6,48.2,82,29.90,10.0,NE,3.5,-,N/A,,Clear,50,2014-04-13 04:15:00
9:35 PM,53.6,48.2,82,29.90,10.0,Calm,Calm,-,N/A,,Clear,0,2014-04-13 04:35:00
9:55 PM,50.0,48.2,94,29.90,10.0,Calm,Calm,-,N/A,,Clear,0,2014-04-13 04:55:00
10:15 PM,50.0,48.2,94,29.90,10.0,Calm,Calm,-,N/A,,Clear,0,2014-04-13 05:15:00
10:35 PM,50.0,46.4,87,29.90,10.0,Calm,Calm,-,N/A,,Clear,0,2014-04-13 05:35:00
10:55 PM,48.2,46.4,93,29.91,10.0,Calm,Calm,-,N/A,,Clear,0,2014-04-13 05:55:00
11:15 PM,50.0,46.4,87,29.91,10.0,Calm,Calm,-,N/A,,Clear,0,2014-04-13 06:15:00
11:35 PM,48.2,46.4,93,29.91,10.0,Calm,Calm,-,N/A,,Clear,0,2014-04-13 06:35:00
11:55 PM,48.2,46.4,93,29.92,10.0,Calm,Calm,-,N/A,,Clear,0,2014-04-13 06:55:00